Watonga, OK

3:28 AM CST on February 28, 2017 (GMT -0600)
Watonga

Weather History for KJWG - February, 2013

Change the Weather History Date:

Tuesday, February 12, 2013

  Actual Average Record
Temperature  
Mean Temperature 35 °F -  
Max Temperature 39 °F 52 °F 88 °F (1962)
Min Temperature 31 °F 26 °F 3 °F (1986)
Degree Days  
Heating Degree Days 30    
Moisture  
Dew Point 32 °F    
Average Humidity 89    
Maximum Humidity 100    
Minimum Humidity 64    
Precipitation  
Precipitation 0.12 in - - ()
Sea Level Pressure  
Sea Level Pressure 30.05 in    
Wind  
Wind Speed 10 mph (North)    
Max Wind Speed 16 mph    
Max Gust Speed -    
Visibility 5 miles    
Events Snow    
Averages and records for this station are not official NWS values.
T = Trace of Precipitation, MM = Missing Value Source: NWS Daily Summary

Daily Weather History Graph

Daily Weather History Graph

Search for Another Location

Airport or City:

Trip Planner

Search our weather history database for the weather conditions in past years. The results will help you decide how hot, cold, wet, or windy it might be!

Date:

Astronomy

Feb. 12, 2013 Rise Set
Actual Time 7:23 AM CST 6:12 PM CST
Civil Twilight 6:57 AM CST 6:38 PM CST
Nautical Twilight 6:27 AM CST 7:09 PM CST
Astronomical Twilight 5:57 AM CST 7:38 PM CST
Moon 8:28 AM CST (2/12) 9:06 PM CST (2/12)
Length of Visible Light 11h 41m
Length of Day
10h 48m
Waxing Crescent, 7% of the Moon is Illuminated
Feb 12
Waxing Crescent
Feb 17
First Quarter
Feb 25
Full
Mar 4
Last Quarter
Mar 11
New

Hourly Weather History & Observations

Time (CST) Temp. Windchill Dew Point Humidity Pressure Visibility Wind Dir Wind Speed Gust Speed Precip Events Conditions
12:15 AM 36.5 °F 29.2 °F 27.9 °F 71% 30.08 in 10.0 mi NE 10.4 mph - N/A   Clear
12:35 AM 37.2 °F 31.9 °F 28.2 °F 70% 30.08 in 10.0 mi NE 6.9 mph - N/A   Mostly Cloudy
12:55 AM 38.3 °F 33.2 °F 28.4 °F 68% 30.09 in 10.0 mi NE 6.9 mph - N/A   Mostly Cloudy
1:15 AM 39.2 °F 35.0 °F 28.6 °F 66% 30.09 in 10.0 mi NNE 5.8 mph - N/A   Scattered Clouds
1:35 AM 38.3 °F 34.8 °F 28.8 °F 69% 30.08 in 10.0 mi NE 4.6 mph - N/A   Scattered Clouds
1:55 AM 37.4 °F 32.1 °F 28.9 °F 71% 30.08 in 10.0 mi NNE 6.9 mph - N/A   Scattered Clouds
2:15 AM 39.4 °F 33.2 °F 28.4 °F 65% 30.08 in 10.0 mi NNE 9.2 mph - N/A   Mostly Cloudy
2:35 AM 39.4 °F 32.7 °F 28.0 °F 64% 30.07 in 10.0 mi NNE 10.4 mph - N/A   Mostly Cloudy
2:55 AM 39.2 °F 32.5 °F 28.0 °F 64% 30.09 in 10.0 mi North 10.4 mph - N/A   Overcast
3:15 AM 37.8 °F 29.8 °F 27.5 °F 67% 30.09 in 10.0 mi North 12.7 mph - N/A   Overcast
3:35 AM 38.3 °F 30.5 °F 27.5 °F 65% 30.09 in 10.0 mi North 12.7 mph - N/A   Mostly Cloudy
3:55 AM 37.9 °F 30.9 °F 27.5 °F 66% 30.08 in 10.0 mi NNE 10.4 mph - N/A   Mostly Cloudy
4:15 AM 37.6 °F 30.5 °F 27.7 °F 67% 30.07 in 10.0 mi NNE 10.4 mph - N/A   Mostly Cloudy
4:35 AM 37.4 °F 30.8 °F 27.9 °F 68% 30.06 in 10.0 mi NE 9.2 mph - N/A   Mostly Cloudy
4:55 AM 37.4 °F 29.8 °F 27.9 °F 68% 30.04 in 10.0 mi NE 11.5 mph - N/A   Mostly Cloudy
5:15 AM 37.4 °F 32.8 °F 28.4 °F 70% 30.08 in 10.0 mi NNE 5.8 mph - N/A   Mostly Cloudy
5:35 AM 37.0 °F 30.4 °F 28.4 °F 71% 30.06 in 10.0 mi NNE 9.2 mph - N/A   Mostly Cloudy
5:55 AM 37.8 °F 29.8 °F 28.4 °F 69% 30.04 in 10.0 mi NE 12.7 mph - N/A   Mostly Cloudy
6:15 AM 37.4 °F 30.8 °F 28.2 °F 69% 30.04 in 10.0 mi NE 9.2 mph - N/A   Scattered Clouds
6:35 AM 37.4 °F 28.2 °F 28.4 °F 70% 30.02 in 10.0 mi NE 16.1 mph - N/A   Mostly Cloudy
6:55 AM 37.4 °F 28.5 °F 28.9 °F 71% 30.02 in 10.0 mi NE 15.0 mph - N/A   Overcast
7:15 AM 36.7 °F 28.4 °F 28.9 °F 74% 30.02 in 10.0 mi NNE 12.7 mph - N/A   Overcast
7:35 AM 36.1 °F 28.2 °F 29.5 °F 77% 30.04 in 10.0 mi NNE 11.5 mph - N/A Snow Light Snow
7:55 AM 35.2 °F 28.1 °F 31.1 °F 85% 30.04 in 5.0 mi NNE 9.2 mph - N/A Snow Light Snow
8:15 AM 34.0 °F 26.6 °F 32.2 °F 93% 30.07 in 3.0 mi NNE 9.2 mph - N/A Snow Light Snow
8:35 AM 32.9 °F 25.3 °F 32.9 °F 100% 30.08 in 1.8 mi North 9.2 mph - N/A Snow Light Snow
8:55 AM 32.5 °F 23.2 °F 32.5 °F 100% 30.06 in 0.8 mi North 12.7 mph - 0.02 in Snow Light Snow
9:15 AM 32.7 °F 24.5 °F 32.7 °F 100% 30.09 in 0.5 mi North 10.4 mph - 0.01 in Snow Snow
9:35 AM 32.9 °F 24.1 °F 32.9 °F 100% 30.08 in 0.8 mi North 11.5 mph - 0.02 in Snow Light Snow
9:55 AM 32.9 °F 24.1 °F 32.9 °F 100% 30.10 in 0.8 mi North 11.5 mph - 0.02 in Snow Light Snow
10:15 AM 32.7 °F 25.0 °F 32.7 °F 100% 30.09 in 0.5 mi North 9.2 mph - N/A Snow Snow
10:35 AM 32.5 °F 23.7 °F 32.5 °F 100% 30.08 in 0.8 mi North 11.5 mph - 0.01 in Snow Light Snow
10:55 AM 32.5 °F 22.7 °F 32.5 °F 100% 30.07 in 1.8 mi NNE 13.8 mph - 0.02 in Snow Light Snow
11:15 AM 32.5 °F 22.7 °F 32.5 °F 100% 30.06 in 1.0 mi NNE 13.8 mph - N/A Snow Light Snow
11:35 AM 32.9 °F 23.2 °F 32.9 °F 100% 30.05 in 1.0 mi NNE 13.8 mph - N/A Snow Light Snow
11:55 AM 32.9 °F 23.2 °F 32.9 °F 100% 30.06 in 1.8 mi NNE 13.8 mph - N/A Snow Light Snow
12:15 PM 33.3 °F 23.7 °F 33.3 °F 100% 30.04 in 1.2 mi NE 13.8 mph - N/A Snow Light Snow
12:35 PM 33.8 °F 24.3 °F 33.8 °F 100% 30.04 in 0.8 mi NE 13.8 mph - N/A Snow Light Snow
12:55 PM 33.4 °F 24.8 °F 33.4 °F 100% 30.04 in 0.8 mi NE 11.5 mph - N/A Snow Light Snow
1:15 PM 33.4 °F 24.3 °F 33.4 °F 100% 30.02 in 1.2 mi NE 12.7 mph - N/A Snow Light Snow
1:35 PM 33.6 °F 23.3 °F 33.6 °F 100% 30.02 in 1.2 mi NE 16.1 mph - 0.01 in Snow Light Snow
1:55 PM 33.6 °F 24.1 °F 33.6 °F 100% 30.01 in 1.2 mi NE 13.8 mph - 0.01 in Snow Light Snow
2:15 PM 33.4 °F 24.8 °F 33.4 °F 100% 30.01 in 0.8 mi NE 11.5 mph - 0.01 in Snow Light Snow
2:35 PM 33.4 °F 24.8 °F 33.4 °F 100% 30.00 in 0.8 mi NE 11.5 mph - 0.01 in Snow Light Snow
2:55 PM 33.8 °F 26.4 °F 33.8 °F 100% 30.00 in 0.8 mi NNE 9.2 mph - 0.02 in Snow Light Snow
3:15 PM 33.8 °F 25.8 °F 33.8 °F 100% 30.00 in 2.5 mi NNE 10.4 mph - N/A   Scattered Clouds
3:35 PM 33.8 °F 27.7 °F 33.8 °F 100% 30.01 in 1.2 mi North 6.9 mph - 0.01 in   Unknown
3:55 PM 33.8 °F 29.6 °F 33.8 °F 100% 30.02 in 1.5 mi NNW 4.6 mph - 0.02 in   Unknown
4:15 PM 34.0 °F 28.8 °F 34.0 °F 100% 30.02 in 1.5 mi NNW 5.8 mph - N/A   Unknown
4:35 PM 33.8 °F 26.4 °F 33.8 °F 100% 30.02 in 2.5 mi NNW 9.2 mph - 0.01 in   Unknown
4:55 PM 33.8 °F 25.3 °F 33.8 °F 100% 30.02 in 3.0 mi NNW 11.5 mph - 0.01 in   Unknown
5:15 PM 33.8 °F 25.3 °F 33.8 °F 100% 30.02 in 2.0 mi NNW 11.5 mph - N/A   Overcast
5:35 PM 33.8 °F 24.8 °F 33.8 °F 100% 30.02 in 2.5 mi NNW 12.7 mph - N/A   Overcast
5:55 PM 33.8 °F 25.3 °F 33.8 °F 100% 30.02 in 2.0 mi NNW 11.5 mph - N/A Snow Light Snow
6:15 PM 33.8 °F 25.3 °F 33.8 °F 100% 30.03 in 2.5 mi NNW 11.5 mph - N/A   Overcast
6:35 PM 33.8 °F 24.8 °F 33.8 °F 100% 30.03 in 3.0 mi NNW 12.7 mph - N/A Snow Light Snow
6:55 PM 33.8 °F 25.8 °F 33.8 °F 100% 30.03 in 7.0 mi NNW 10.4 mph - N/A Snow Light Snow
7:15 PM 33.8 °F 26.4 °F 33.8 °F 100% 30.04 in 7.0 mi NNW 9.2 mph - N/A   Overcast
7:35 PM 33.8 °F 27.0 °F 33.8 °F 100% 30.04 in 10.0 mi NNW 8.1 mph - N/A   Overcast
8:15 PM 33.4 °F 26.6 °F 33.4 °F 100% 30.04 in 5.0 mi NNW 8.1 mph - N/A Snow Light Snow
8:35 PM 33.4 °F 26.6 °F 33.4 °F 100% 30.05 in 5.0 mi NNW 8.1 mph - N/A   Overcast
8:55 PM 33.4 °F 27.3 °F 33.4 °F 100% 30.06 in 7.0 mi NNW 6.9 mph - N/A   Overcast
9:15 PM 33.8 °F 28.6 °F 33.8 °F 100% 30.06 in 7.0 mi NNW 5.8 mph - N/A   Overcast
9:35 PM 33.1 °F 28.7 °F 33.1 °F 100% 30.06 in 7.0 mi NNW 4.6 mph - N/A   Overcast
9:55 PM 32.7 °F 29.6 °F 32.7 °F 100% 30.06 in 7.0 mi NNW 3.5 mph - N/A   Overcast
10:15 PM 32.0 °F 28.7 °F 32.0 °F 100% 30.06 in 5.0 mi NW 3.5 mph - N/A   Overcast
10:35 PM 31.8 °F 27.3 °F 31.8 °F 100% 30.06 in 5.0 mi WNW 4.6 mph - N/A   Overcast
10:55 PM 32.2 °F 27.7 °F 32.2 °F 100% 30.06 in 2.5 mi WNW 4.6 mph - N/A   Overcast
11:15 PM 32.0 °F 25.6 °F 32.0 °F 100% 30.06 in 2.5 mi WNW 6.9 mph - N/A   Overcast
11:55 PM 32.9 °F 27.5 °F 32.9 °F 100% 30.06 in 2.0 mi WNW 5.8 mph - N/A   Overcast